COSMOS 1275 DEB

Satellite information

Favourite Embed

Satellite Type and Status

DEBRISIN ORBIT

Key statistics

Satellite COSMOS 1275 DEB at a glance.

Uptime

16105

Days in orbit

Revolutions

≈ 14.1

Per day

Orbit

LEO

Low Earth Orbit

Inclination

82.8

Latest

Satellite identification and parameters

Extended collection of information and parameters for COSMOS 1275 DEB.

Object identification

Identified? True

Debris? True

Object name: COSMOS 1275 DEB

International designator: 1981-053PT

Object number (NORAD): 42107

Object ID (CCSDS): 42107

Country: COMMONWEALTH OF INDEPENDENT STATES (CIS)

Current information (Y/N): Y

RCS size: SMALL

Orbital parameters

Period: 102.181 minutes

Inclination: 82.8053 deg

SMA: 7240.02 km

Apoapsis: 895.785 km

Periapsis: 827.984 km

RAAN: 34.9241 deg

Eccentricy: 0.0046824

Argument of periapsis: 334.6924 deg

Mean anomaly: 25.1957 deg

Mean motion: 14.09266594 rev/day

Mean motion (dot): 0.00001545 rev/day2

B* drag term: 0.00087074 1/REarth

Two-line elements (TLE)

Creation date: July 3, 2025, 3:40 a.m.

Reference frame: TEME

Reference center: EARTH

Epoch: July 2, 2025, 8:23 p.m. UTC

TLE line 0: 0 COSMOS 1275 DEB

TLE line 1: 1 42107U 81053PT 25183.84993466 .00001545 00000-0 87074-3 0 9993

TLE line 2: 2 42107 82.8053 34.9241 0046824 334.6924 25.1957 14.09266594593619

Live tracking on map

Real-time ground track for satellite COSMOS 1275 DEB.

In-orbit conjunctions

A list of the most updated potential collisions computed for object COSMOS 1275 DEB.

Target Orbit TCA Probability of collision Miss distance Type
COSMOS 2251 DEB LEO 2025-05-26 23:09:08 0.0002006826 158.0 (m) DEBRIS
DODECAPOLE 2 SSO 2024-11-10 01:53:30 0.0002882508 662.0 (m) PAYLOAD

Associated space launch

Navigation satellite providing location information for the Tsiklon-B navigation system

COSMOS 1275 DEB was lifted into orbit during the mission ‘Kosmos-3M | Parus 27’, on board a Kosmos-3M space rocket.

The launch took place on June 4, 1981, 3:41 p.m. from 132/2.

For more information about the launch, click the button.

Launch to space Kosmos-3M | Parus 27
Kosmos-3M | Parus 27

Agency: N/A

Status: Launch Successful

Launch date: June 4, 1981, 3:41 p.m. UTC

Rocket: Kosmos-3M

Launch pad: 132/2

Location: Plesetsk Cosmodrome, Russian Federation

...

Latest news about this satellite

There are no fresh news available about this satellite. Check back as we update our databases every day.


Newsletter sign-up

Weekly statistics, charts and insights to help you stay on top of the space industry.